SCP
0 0 0 0 0 0 0 0 0 0 0 0 0 0 0 0 0 0 0 0 0 0 0 0 0 0 0 0 0 0 0 0
0 0 0 0 0 0 0 0 0 0 0 0 0 0 0 0 0 0 0 0 0 0 0 0 0 0 0 0 0 0 0 0
0 0 0 0 0 0 0 0 0 0 0 0 0 0 0 0 0 0 0 0 0 0 0 0 0 0 0 0 0 0 0 0
0 0 0 0 0 0 0 0 0 0 0 0 0 0 0 0 0 0 0 0 0 0 0 0 0 0 0 0 0 0 0 0
0 0 0 0 0 0 0 0 0 0 0 0 0 0 0 0 0 0 0 0 0 0 0 0 0 0 0 0 0 0 0 0
0 0 0 0 0 0 0 0 0 0 0 0 0 0 0 0 0 0 0 0 0 0 0 0 0 0 0 0 0 0 0 0
0 0 0 0 0 0 0 0 0 0 0 0 0 0 0 0 0 0 0 0 0 0 0 0 0 0 0 0 0 0 0 0
0 0 0 0 0 0 0 0 0 0 0 0 0 0 0 0 0 0 0 0 0 0 0 0 0 0 0 0 0 0 0 0
0 0 0 0 0 0 0 0 0 0 0 0 0 0 0 0 0 0 0 0 0 0 0 0 0 0 0 0 0 0 0 0
0 0 0 0 0 0 0 0 0 0 0 0 0 0 0 0 0 0 0 0 0 0 0 0 0 0 0 0 0 0 0 0
0 0 0 0 0 0 0 0 0 0 0 0 0 0 0 0 0 0 0 0 0 0 0 0 0 0 0 0 0 0 0 0
0 0 0 0 0 0 0 0 0 0 0 0 0 0 0 0 0 0 0 0 0 0 0 0 0 0 0 0 0 0 0 0
0 0 0 0 0 0 0 0 0 0 0 0 0 0 0 0 0 0 0 0 0 0 0 0 0 0 0 0 0 0 0 0
0 0 0 0 0 0 0 0 0 0 0 0 0 0 0 0 0 0 0 0 0 0 0 0 0 0 0 0 0 0 0 0
0 0 0 0 0 0 0 0 0 0 0 0 0 0 0 0 0 0 0 0 0 0 0 0 0 0 0 0 0 0 0 0
0 0 0 0 0 0 0 0 0 0 0 0 0 0 0 0 0 0 0 0 0 0 0 0 0 0 0 0 0 0 0 0
0 0 0 0 0 0 0 0 0 0 0 0 0 0 0 0 0 0 0 0 0 0 0 0 0 0 0 0 0 0 0 0
0 0 0 0 0 0 0 0 0 0 0 0 0 0 0 0 0 0 0 0 0 0 0 0 0 0 0 0 -0 0 0 0
0 0 0 0 0 0 0 0 0 0 0 0 0 0 0 0 0 0 0 0 0 0 0 0 0 0 0 0 0 0 0 0
Wind_Speed_500mb
29 25 20 14 7 7 8 11 17 15 16 17 16 18 19 21 22 25 28 29 33 33 33 36 38 35 37 40 41 42 39 44
31 27 22 16 9 6 7 9 15 14 15 17 17 19 20 20 21 25 27 29 31 32 33 35 37 35 37 40 40 42 39 41
33 29 23 16 11 8 6 8 11 14 13 16 17 19 19 20 22 23 25 28 30 31 33 34 36 36 35 39 40 41 36 35
37 32 26 19 12 8 5 7 8 14 19 16 18 17 18 20 22 22 26 28 29 31 32 33 35 34 36 38 37 36 36 31
40 36 30 22 15 10 7 6 7 13 19 17 21 21 21 22 22 23 24 26 27 28 32 32 34 33 35 37 38 37 35 33
43 38 30 23 16 10 7 5 7 12 16 20 20 20 19 19 22 25 25 25 26 27 33 33 34 33 34 37 38 36 32 31
41 36 31 23 17 12 8 5 7 12 17 19 21 22 21 22 25 25 26 25 25 26 32 34 35 36 35 37 38 32 33 30
42 40 33 25 19 13 7 5 7 12 16 18 20 20 20 21 25 25 27 27 26 29 32 35 36 37 36 40 39 35 37 44
42 39 33 26 20 15 9 6 7 11 15 17 18 20 19 20 23 25 24 26 26 30 32 33 36 37 38 46 42 40 39 44
40 36 32 27 21 15 10 6 7 11 15 17 18 20 22 22 24 25 24 24 27 31 32 34 35 37 39 42 41 45 40 45
39 37 32 26 21 15 10 8 8 11 15 16 17 19 22 23 24 25 26 26 28 31 33 35 36 37 41 41 44 40 42 40
40 37 31 26 19 14 9 9 8 10 15 16 17 20 23 23 23 25 27 28 30 31 33 35 37 39 39 44 46 41 40 37
38 34 30 24 18 12 9 7 7 12 14 15 18 21 22 23 25 27 28 29 29 31 33 35 37 39 38 46 49 45 38 37
36 32 27 21 17 12 8 5 6 11 12 14 17 21 22 23 24 26 29 29 30 31 33 35 42 37 40 49 50 40 36 36
35 30 25 22 17 12 8 5 8 10 11 14 17 19 20 22 25 28 29 29 30 31 33 35 38 35 42 52 54 35 35 36
35 31 27 23 18 13 9 6 7 10 12 13 16 18 20 23 26 29 30 29 30 31 32 38 39 35 48 56 53 34 36 36
33 29 26 22 17 13 9 5 8 10 11 12 15 18 21 25 27 30 31 30 31 30 32 38 40 39 57 56 40 37 36 35
34 29 25 20 17 14 10 7 9 9 11 12 16 19 22 26 28 30 32 31 31 30 32 37 40 41 61 58 34 38 35 35
31 29 26 23 19 15 14 11 10 10 10 12 16 19 23 26 28 31 32 31 31 31 33 37 39 41 59 58 40 37 34 34
Wind_Direction_500mb
189 178 176 164 139 87 54 31 15 12 1 358 351 349 345 349 352 350 358 356 356 355 349 347 349 348 350 347 348 346 347 344
195 187 181 170 146 111 83 29 17 22 356 359 353 350 349 351 352 352 355 354 353 352 349 347 348 348 349 348 346 344 346 350
198 198 193 181 170 136 76 42 15 14 5 356 352 349 351 352 348 350 347 349 350 351 349 348 347 347 348 348 346 342 342 354
203 203 200 190 176 148 103 48 24 6 25 351 1 359 354 344 350 343 344 343 347 348 348 347 347 347 346 345 343 341 338 351
206 206 203 195 186 155 115 65 32 6 7 9 9 5 358 349 345 336 345 339 342 345 347 345 346 347 345 342 339 338 343 338
204 203 202 196 182 157 127 86 31 16 12 14 14 5 357 350 345 345 340 339 340 342 345 343 343 344 343 338 334 334 334 327
198 196 194 191 176 157 138 108 29 18 16 11 11 5 0 356 347 347 341 339 341 338 345 340 340 341 342 334 330 331 334 330
188 188 190 188 179 162 137 101 32 21 16 11 9 5 1 357 349 343 344 341 340 336 343 338 338 339 338 323 332 332 338 338
186 187 188 186 177 168 138 94 39 21 13 12 6 5 360 355 345 343 341 341 338 338 339 338 339 340 334 326 333 337 332 333
181 183 184 181 175 160 140 101 46 24 14 9 6 3 360 351 348 343 340 343 341 337 341 341 344 339 328 329 339 338 329 329
177 177 178 177 168 152 127 93 55 24 13 11 5 2 358 351 348 346 345 347 342 343 344 346 343 338 328 336 343 336 329 329
173 174 174 170 157 146 119 78 47 19 14 14 11 5 360 355 352 349 348 350 345 347 346 347 343 332 333 345 338 336 334 332
170 170 167 163 150 139 117 74 40 22 15 20 13 7 2 358 356 352 351 351 349 349 348 347 335 336 343 342 341 338 338 332
164 165 163 157 149 138 112 85 37 24 24 23 14 7 3 1 356 354 353 353 352 351 351 348 330 346 341 346 342 343 338 333
164 163 162 161 154 136 122 81 42 29 32 29 17 6 1 359 357 358 356 356 353 353 354 341 344 353 341 349 345 349 339 333
168 167 165 158 146 139 128 86 40 49 39 25 12 3 2 360 1 358 356 357 356 353 353 342 351 352 344 352 349 347 339 335
171 167 162 156 149 142 129 90 63 58 43 26 10 6 5 2 0 358 358 358 359 354 356 349 355 349 343 355 357 354 342 341
167 163 157 152 150 139 122 97 78 58 41 22 12 9 5 4 360 0 1 2 357 357 357 356 358 345 347 358 15 1 350 350
161 157 151 148 138 137 118 110 87 62 38 23 12 9 7 5 4 5 3 3 360 359 359 358 359 351 349 1 17 3 360 357
Wind_Speed_850mb
29 25 20 14 7 7 8 11 17 15 16 17 16 18 19 21 22 25 28 29 33 33 33 36 38 35 37 40 41 42 39 44
31 27 22 16 9 6 7 9 15 14 15 17 17 19 20 20 21 25 27 29 31 32 33 35 37 35 37 40 40 42 39 41
33 29 23 16 11 8 6 8 11 14 13 16 17 19 19 20 22 23 25 28 30 31 33 34 36 36 35 39 40 41 36 35
37 32 26 19 12 8 5 7 8 14 19 16 18 17 18 20 22 22 26 28 29 31 32 33 35 34 36 38 37 36 36 31
40 36 30 22 15 10 7 6 7 13 19 17 21 21 21 22 22 23 24 26 27 28 32 32 34 33 35 37 38 37 35 33
43 38 30 23 16 10 7 5 7 12 16 20 20 20 19 19 22 25 25 25 26 27 33 33 34 33 34 37 38 36 32 31
41 36 31 23 17 12 8 5 7 12 17 19 21 22 21 22 25 25 26 25 25 26 32 34 35 36 35 37 38 32 33 30
42 40 33 25 19 13 7 5 7 12 16 18 20 20 20 21 25 25 27 27 26 29 32 35 36 37 36 40 39 35 37 44
42 39 33 26 20 15 9 6 7 11 15 17 18 20 19 20 23 25 24 26 26 30 32 33 36 37 38 46 42 40 39 44
40 36 32 27 21 15 10 6 7 11 15 17 18 20 22 22 24 25 24 24 27 31 32 34 35 37 39 42 41 45 40 45
39 37 32 26 21 15 10 8 8 11 15 16 17 19 22 23 24 25 26 26 28 31 33 35 36 37 41 41 44 40 42 40
40 37 31 26 19 14 9 9 8 10 15 16 17 20 23 23 23 25 27 28 30 31 33 35 37 39 39 44 46 41 40 37
38 34 30 24 18 12 9 7 7 12 14 15 18 21 22 23 25 27 28 29 29 31 33 35 37 39 38 46 49 45 38 37
36 32 27 21 17 12 8 5 6 11 12 14 17 21 22 23 24 26 29 29 30 31 33 35 42 37 40 49 50 40 36 36
35 30 25 22 17 12 8 5 8 10 11 14 17 19 20 22 25 28 29 29 30 31 33 35 38 35 42 52 54 35 35 36
35 31 27 23 18 13 9 6 7 10 12 13 16 18 20 23 26 29 30 29 30 31 32 38 39 35 48 56 53 34 36 36
33 29 26 22 17 13 9 5 8 10 11 12 15 18 21 25 27 30 31 30 31 30 32 38 40 39 57 56 40 37 36 35
34 29 25 20 17 14 10 7 9 9 11 12 16 19 22 26 28 30 32 31 31 30 32 37 40 41 61 58 34 38 35 35
31 29 26 23 19 15 14 11 10 10 10 12 16 19 23 26 28 31 32 31 31 31 33 37 39 41 59 58 40 37 34 34
Wind_Direction_850mb
189 178 176 164 139 87 54 31 15 12 1 358 351 349 345 349 352 350 358 356 356 355 349 347 349 348 350 347 348 346 347 344
195 187 181 170 146 111 83 29 17 22 356 359 353 350 349 351 352 352 355 354 353 352 349 347 348 348 349 348 346 344 346 350
198 198 193 181 170 136 76 42 15 14 5 356 352 349 351 352 348 350 347 349 350 351 349 348 347 347 348 348 346 342 342 354
203 203 200 190 176 148 103 48 24 6 25 351 1 359 354 344 350 343 344 343 347 348 348 347 347 347 346 345 343 341 338 351
206 206 203 195 186 155 115 65 32 6 7 9 9 5 358 349 345 336 345 339 342 345 347 345 346 347 345 342 339 338 343 338
204 203 202 196 182 157 127 86 31 16 12 14 14 5 357 350 345 345 340 339 340 342 345 343 343 344 343 338 334 334 334 327
198 196 194 191 176 157 138 108 29 18 16 11 11 5 0 356 347 347 341 339 341 338 345 340 340 341 342 334 330 331 334 330
188 188 190 188 179 162 137 101 32 21 16 11 9 5 1 357 349 343 344 341 340 336 343 338 338 339 338 323 332 332 338 338
186 187 188 186 177 168 138 94 39 21 13 12 6 5 360 355 345 343 341 341 338 338 339 338 339 340 334 326 333 337 332 333
181 183 184 181 175 160 140 101 46 24 14 9 6 3 360 351 348 343 340 343 341 337 341 341 344 339 328 329 339 338 329 329
177 177 178 177 168 152 127 93 55 24 13 11 5 2 358 351 348 346 345 347 342 343 344 346 343 338 328 336 343 336 329 329
173 174 174 170 157 146 119 78 47 19 14 14 11 5 360 355 352 349 348 350 345 347 346 347 343 332 333 345 338 336 334 332
170 170 167 163 150 139 117 74 40 22 15 20 13 7 2 358 356 352 351 351 349 349 348 347 335 336 343 342 341 338 338 332
164 165 163 157 149 138 112 85 37 24 24 23 14 7 3 1 356 354 353 353 352 351 351 348 330 346 341 346 342 343 338 333
164 163 162 161 154 136 122 81 42 29 32 29 17 6 1 359 357 358 356 356 353 353 354 341 344 353 341 349 345 349 339 333
168 167 165 158 146 139 128 86 40 49 39 25 12 3 2 360 1 358 356 357 356 353 353 342 351 352 344 352 349 347 339 335
171 167 162 156 149 142 129 90 63 58 43 26 10 6 5 2 0 358 358 358 359 354 356 349 355 349 343 355 357 354 342 341
167 163 157 152 150 139 122 97 78 58 41 22 12 9 5 4 360 0 1 2 357 357 357 356 358 345 347 358 15 1 350 350
161 157 151 148 138 137 118 110 87 62 38 23 12 9 7 5 4 5 3 3 360 359 359 358 359 351 349 1 17 3 360 357